カタログに戻る

STARLINK-3452

運用中通信VLEO
NORAD 51744·PAYLOAD·🇺🇸 United States

打ち上げ Feb 21, 2022 から Cape Canaveral Space Force Station

Loading…

次のパス (今後24時間)

TLE

最新Source: CelesTrak SupGP

元期: Sep 14, 2026, 20:37 UTC

1 51744C 22016AG  26257.85951389 -.00015225  00000+0 -46198-3 0  2576
2 51744  53.1583 176.2637 0001450  90.4748  65.1154 15.33557552    16

AllMySatでSTARLINK-3452をリアルタイム追跡

Download on the App Store